Regional Weather Roundup
Issued by NWS

Home | Current Version | Previous Version | Graphics & Text | Print | Product List | Glossary On
Versions: 1 2 3 4 5 6 7 8 9 10 11 12 13 14 15 16 17 18 19 20 21 22 23 24 25 26 27 28 29 30 31 32 33 34 35 36 37 38 39 40 41 42 43 44 45 46 47 48 49 50
940
ASUS43 KDMX 311408
RWRIA

WEATHER ROUNDUP FOR IOWA
NATIONAL WEATHER SERVICE DES MOINES IA
900 AM CDT TUE MAY 31 2016

NOTE: "FAIR" INDICATES FEW OR NO CLOUDS BELOW 12,000 FEET WITH NO
SIGNIFICANT WEATHER AND/OR OBSTRUCTIONS TO VISIBILITY.

* - THESE STATIONS ARE NOT NWS STATIONS...THUS NOT UNDER NWS
QUALITY CONTROL.  THEY ALSO DO NOT REPORT WEATHER SUCH
AS PRECIPITATION OR FOG.

IAZ001>003-012>014-020>022-031>034-043>046-311500-
   NORTHWEST IOWA

CITY           SKY/WX    TMP DP  RH WIND       PRES   REMARKS
CARROLL *      PTSUNNY   70  63  78 S6        29.90S
CHEROKEE *     LGT RAIN  63  63 100 S3        29.90R
DENISON *      MOSUNNY   68  63  83 VRB5      29.90S
LE MARS *      MOSUNNY   61  59  94 NW9G16    29.93R
ORANGE CITY *  CLOUDY    61  57  88 CALM      29.91R
SHELDON *      LGT RAIN  59  57  94 NW13G20   29.88S
SIOUX CITY     CLOUDY    63  58  83 NW12      29.93R
SPENCER        LGT RAIN  63  59  87 W10       29.89F
STORM LAKE *   MOSUNNY   64  61  88 NW6       29.92R
$$

IAZ055>058-069>071-079>083-090>094-311500-
   SOUTHWEST IOWA

CITY           SKY/WX    TMP DP  RH WIND       PRES   REMARKS
ATLANTIC *     MOSUNNY   66  63  88 S3        29.91F
AUDUBON *      SUNNY     70  63  78 S7        29.92F
CLARINDA *       N/A     68  63  83 MISG      29.93S
COUNCIL BLFS * PTSUNNY   68  64  88 NW7       29.92R
CRESTON *      SUNNY     68  63  83 S12       29.95R
HARLAN  *      MOSUNNY   66  63  88 SW8       29.95R
LAMONI         PTSUNNY   66  60  81 SE9       29.95S
RED OAK *      SUNNY     68  63  83 VRB5      29.91S
SHENANDOAH *   CLOUDY    68  64  88 SW8       29.92R
$$

IAZ047>049-059>061-072>074-084-311500-
   CENTRAL IOWA

CITY           SKY/WX    TMP DP  RH WIND       PRES   REMARKS
AMES           MOSUNNY   70  63  78 S12       29.91F
ANKENY *       SUNNY     72  63  73 VRB6      29.92F
BOONE *        SUNNY     68  63  83 S8        29.91S
CHARITON *     SUNNY     70  63  78 S9G16     29.96R
DES MOINES     CLOUDY    71  61  70 S7        29.92F
GRINNELL*      SUNNY     70  61  73 S9        29.95F
KNOXVILLE *    MOSUNNY   68  61  77 S7        29.93F
MARSHALLTOWN   CLOUDY    70  62  76 S9        29.92F
NEWTON *       SUNNY     70  63  78 S8        29.94S
PERRY *          N/A     70  64  83 S8        29.91S
$$

IAZ004>006-015-016-023>025-035-036-311500-
   NORTH CENTRAL IOWA

CITY           SKY/WX    TMP DP  RH WIND       PRES   REMARKS
ALGONA *       PTSUNNY   66  64  94 S14       29.90S
CLARION *      SUNNY     68  64  88 S13       29.91S
ESTHERVILLE    CLOUDY    63  61  93 W13       29.89S
FORT DODGE *   CLOUDY    70  63  78 SW9       29.92S
MASON CITY     CLOUDY    65  61  87 S7        29.93F
FOREST CITY *  MOSUNNY   66  63  88 S12       29.91F
WEBSTER CITY * MOSUNNY   68  64  88 S9        29.89F
IOWA FALLS *     N/A     68  63  83 S9        29.94S
$$

IAZ007>011-017>019-026>030-037>042-050>054-066-311500-
   NORTHEAST IOWA

CITY           SKY/WX    TMP DP  RH WIND       PRES   REMARKS
CEDAR RAPIDS   SUNNY     72  65  78 SW7       29.96F
CHARLES CITY * SUNNY     68  64  88 S14       29.94S
CLINTON *      MOSUNNY   75  64  68 SE13      29.96F
DECORAH *      SUNNY     68  61  77 S10       29.95S
DUBUQUE        CLOUDY    69  61  75 SE8       29.97R
MONTICELLO *   PTSUNNY   73  64  73 S9G16     29.97R
OELWEIN *      SUNNY     68  64  88 S14G20    29.96F
WATERLOO       PTSUNNY   70  61  73 S8        29.93F
$$

IAZ064-065-067-068-078-311500-
   EAST CENTRAL IOWA

CITY           SKY/WX    TMP DP  RH WIND       PRES   REMARKS
DAVENPORT      MOSUNNY   74  65  73 S10       29.96F
IOWA CITY      CLOUDY    73  61  65 S12       30.00R
MT. PLEASANT * CLOUDY    70  64  83 S3        29.98F
MUSCATINE *    PTSUNNY   68  61  77 CALM      29.99S HAZE
QUAD CITIES    CLOUDY    74  65  73 SW7       29.96S
$$

IAZ062-063-075>077-085>089-095>099-311500-
   SOUTHEAST IOWA

CITY           SKY/WX    TMP DP  RH WIND       PRES   REMARKS
BURLINGTON     CLOUDY    69  63  81 SW5       29.99S
FAIRFIELD *      N/A    N/A N/A N/A MISG        N/A
FORT MADISON * PTSUNNY   66  64  94 CALM      30.00S
KEOKUK *       PTSUNNY   68  64  88 SW5       29.99S
OSKALOOSA *    PTSUNNY   68  61  77 S8        29.96F
OTTUMWA        PTSUNNY   68  62  81 S10       29.96F
WASHINGTON *   SUNNY     68 -38   1 CALM      29.98F
$$

ABBREVIATIONS USED IN REMARKS
   TC - TEMPERATURES IN CELSIUS
  WCI - WIND CHILL INDEX
   HX - HEAT INDEX
  VSB - VISIBILITY
$$





USA.gov is the U.S. government's official web portal to all federal, state and local government web resources and services.